Regional Weather Roundup
Issued by NWS

Home | Current Version | Previous Version | Text Only | Print | Product List | Glossary Off
Versions: 1 2 3 4 5 6 7 8 9 10 11 12 13 14 15 16 17 18 19 20 21 22 23 24 25 26 27 28 29 30 31 32 33 34 35 36 37 38 39 40 41 42 43 44 45 46 47 48 49 50

000
ASUS45 KBOU 212207
RWRCO

WEATHER ROUNDUP FOR COLORADO
NATIONAL WEATHER SERVICE DENVER/BOULDER CO
400 PM MDT MON JUL 21 2014

NOTE: "FAIR" INDICATES FEW OR NO CLOUDS BELOW 12000 FEET WITH NO
SIGNIFICANT WEATHER AND/OR OBSTRUCTIONS TO VISIBILITY.

COZ001>005-013-030-031-212300-
...NORTHWEST COLORADO...

CITY           SKY/WX    TMP DP  RH WIND       PRES   REMARKS
CRAIG          MOSUNNY   87  38  17 W8        30.20S
HAYDEN         MOSUNNY   88  32  13 SW16G25   30.23S
MEEKER         SUNNY     90  25   9 SW12G22   30.22F
MOUNT WERNER   NOT AVBL
STEAMBOAT SPGS MOSUNNY   83  37  19 CALM      30.26F
WALDEN         MOSUNNY   79  34  19 SW17      30.38S
$$

COZ006>008-011-212300-
...WEST CENTRAL VALLEYS...

CITY           SKY/WX    TMP DP  RH WIND       PRES   REMARKS
GRAND JUNCTION MOSUNNY   94  34  12 N7        30.10F
MONTROSE       MOSUNNY   93  35  13 N10       30.19F
EAGLE          MOSUNNY   86  37  17 SW9       30.27F
RIFLE          MOSUNNY   93  30  10 W12G20    30.15F
DELTA          MOSUNNY   97  33  10 S7        30.14F
NUCLA          NOT AVBL
$$

COZ017>023-064>068-212300-
...SOUTHWEST COLORADO...

CITY           SKY/WX    TMP DP  RH WIND       PRES   REMARKS
DURANGO        MOSUNNY   87  29  12 MISG      30.28F
CORTEZ         SUNNY     91  32  12 W16       30.23F
PAGOSA SPRINGS MOSUNNY   85  30  14 W9        30.36F
TELLURIDE      MOSUNNY   79  32  18 SW9       30.48F
WOLF CREEK PAS NOT AVBL
$$

COZ009-010-012-014-032>034-037-058>063-212300-
...CENTRAL COLORADO...

CITY           SKY/WX    TMP DP  RH WIND       PRES   REMARKS
ASPEN          MOSUNNY   83  31  15 N9G21     30.35F
BUENA VISTA    PTSUNNY   82  30  14 S6        30.36F
COPPER MTN     PTSUNNY   68  28  22 W12G22    30.74S
BERTHOUD PASS  FAIR      55  43  62 W16       30.79S
COTTONWOOD PAS PTSUNNY   79  19  11 CALM      30.53F
GUNNISON       PTSUNNY   81  37  21 SW5       30.38F
KREMMLING      MOSUNNY   88  19   8 SW18G24   30.32F
LEADVILLE      PTSUNNY   73  27  18 W13       30.53S
MONARCH PASS   CLOUDY    61  32  33 SW15      30.83S
SALIDA         PTSUNNY   84  34  17 SW10      30.39S
SUNLIGHT       MOSUNNY   70  39  32 CALM      30.65S
WILKERSON PASS MOSUNNY   70  28  21 SW3       30.69
$$

COZ069>075-212300-
...SAN LUIS VALLEY/SANGRE DE CRISTO MOUNTAINS...

CITY           SKY/WX    TMP DP  RH WIND       PRES   REMARKS
ALAMOSA        PTSUNNY   81  40  23 NW8       30.34F
LA VETA PASS   NOT AVBL
SAGUACHE       PTSUNNY   72  46  40 W7        30.39F
$$

COZ035-036-038>040-212300-
...NORTHERN COLORADO FRONT RANGE...

CITY           SKY/WX    TMP DP  RH WIND       PRES   REMARKS
DENVER INTL AP PTSUNNY   95  35  12 VRB6      30.12F
DMNS CITY PARK   N/A     91  39  16 E5G13     30.12S
AURORA         PTSUNNY   91  42  18 NE7       30.16F
FRONT RANGE AP NOT AVBL
ERIE MUNI ARPT MOSUNNY   96  37  12 SE8       30.09S
BOULDER MUN AP MOSUNNY   97  43  15 SE8       30.09F
CENTENNIAL     PTSUNNY   91  33  12 VRB5      30.17F
BROOMFIELD     PTSUNNY   93  37  14 E3        30.15
FORT COLLINS   MOSUNNY   99  43  14 E8          N/A
LONGMONT       MOSUNNY  100  36  11 SW9       30.08F
$$

COZ041-046-047-076>085-087-088-212300-
...PIKES PEAK/PALMER DIVIDE AND SOUTHERN FOOTHILLS...

CITY           SKY/WX    TMP DP  RH WIND       PRES   REMARKS
COLO. SPRINGS  PTSUNNY   85  42  22 S13       30.23S
A. F. ACADEMY  MOSUNNY   85  42  21 S10G18    30.24F
ELLICOTT       PTSUNNY   89  38  16 S9        30.20F
FALCON         PTSUNNY   85  41  21 S8        30.30R
FORT CARSON    PTSUNNY   87  46  24 S14G20    30.20S
LIMON          PTSUNNY   94  39  14 SE12      30.14F
MONUMENT HILL  PTSUNNY   84  36  17 S13G23    30.30S
TRINIDAD       LGT RAIN  77  54  44 SW17      30.25R
$$

COZ042>045-048>051-090-091-212300-
...NORTHEAST COLORADO...

CITY           SKY/WX    TMP DP  RH WIND       PRES   REMARKS
GREELEY ARPT   MOSUNNY   97  45  16 S7        30.07F
AKRON          PTSUNNY   95  38  13 W9        30.08S
BURLINGTON     PTSUNNY   95  53  24 N8        30.05S
WRAY             N/A    101  43  13 SE6       29.99F
STERLING       PTSUNNY   99  59  26 S12       30.00F
HOLYOKE        PTSUNNY   97  52  21 SE10      29.99F
FORT MORGAN    PTSUNNY   98  37  12 S6        30.07F
$$

COZ086-089-092>099-212300-
...SOUTHEAST COLORADO...

CITY           SKY/WX    TMP DP  RH WIND       PRES   REMARKS
PUEBLO         PTSUNNY   92  47  21 S7        30.08S
LA JUNTA       MOSUNNY   97  49  19 SE6       30.04S
LAMAR          SUNNY    101  46  15 VRB3      29.96F
SPRINGFIELD      N/A     87  58  37 S12       30.05F
$$


USA.gov is the U.S. government's official web portal to all federal, state and local government web resources and services.